TimeEST,TemperatureF,Dew PointF,Humidity,Sea Level PressureIn,VisibilityMPH,Wind Direction,Wind SpeedMPH,Gust SpeedMPH,PrecipitationIn,Events,Conditions,WindDirDegrees,DateUTC
12:28 AM,51.8,44.6,76,30.03,10.0,West,9.2,18.4,N/A,,Mostly Cloudy,280,2011-12-16 05:28:00
12:43 AM,51.8,44.6,76,30.03,10.0,WNW,12.7,26.5,N/A,,Overcast,300,2011-12-16 05:43:00
12:51 AM,51.1,44.1,77,30.05,10.0,Variable,6.9,20.7,N/A,,Overcast,0,2011-12-16 05:51:00
1:51 AM,48.2,39.2,71,30.06,10.0,West,13.8,29.9,N/A,,Mostly Cloudy,280,2011-12-16 06:51:00
2:09 AM,48.2,39.2,71,30.08,10.0,NNW,8.1,21.9,N/A,,Mostly Cloudy,330,2011-12-16 07:09:00
2:31 AM,46.4,39.2,76,30.10,10.0,NNW,12.7,-,N/A,,Overcast,330,2011-12-16 07:31:00
2:51 AM,44.6,37.4,76,30.11,10.0,WNW,11.5,-,N/A,,Overcast,300,2011-12-16 07:51:00
3:34 AM,39.2,33.8,81,30.15,10.0,WNW,15.0,24.2,N/A,,Partly Cloudy,290,2011-12-16 08:34:00
3:51 AM,39.9,32.0,73,30.19,10.0,WNW,9.2,-,N/A,,Partly Cloudy,300,2011-12-16 08:51:00
4:09 AM,39.2,30.2,70,30.17,10.0,NW,11.5,18.4,N/A,,Mostly Cloudy,320,2011-12-16 09:09:00
4:51 AM,37.9,28.9,70,30.23,10.0,WNW,8.1,-,N/A,,Overcast,300,2011-12-16 09:51:00
5:51 AM,37.0,28.0,70,30.23,10.0,Variable,4.6,-,N/A,,Overcast,0,2011-12-16 10:51:00
6:51 AM,36.0,27.0,70,30.25,10.0,WNW,6.9,-,N/A,,Overcast,290,2011-12-16 11:51:00
7:51 AM,36.0,28.0,73,30.25,10.0,West,6.9,-,N/A,,Overcast,280,2011-12-16 12:51:00
8:51 AM,35.1,27.0,72,30.25,10.0,WNW,10.4,-,N/A,,Overcast,300,2011-12-16 13:51:00
9:51 AM,34.0,26.1,73,30.26,10.0,West,5.8,-,N/A,,Overcast,270,2011-12-16 14:51:00
10:51 AM,34.0,26.1,73,30.31,10.0,West,4.6,-,N/A,,Overcast,280,2011-12-16 15:51:00
11:51 AM,33.1,26.1,75,30.29,10.0,NNW,5.8,-,N/A,,Overcast,340,2011-12-16 16:51:00
12:51 PM,34.0,26.1,73,30.27,10.0,Calm,Calm,-,N/A,,Overcast,0,2011-12-16 17:51:00
1:33 PM,33.8,24.8,70,30.21,10.0,Calm,Calm,-,N/A,,Scattered Clouds,0,2011-12-16 18:33:00
1:51 PM,34.0,26.1,73,30.25,10.0,Calm,Calm,-,N/A,,Scattered Clouds,0,2011-12-16 18:51:00
2:51 PM,33.8,24.8,70,30.17,10.0,NNW,3.5,-,N/A,,Scattered Clouds,340,2011-12-16 19:51:00
3:51 PM,34.0,25.0,70,30.25,10.0,Calm,Calm,-,N/A,,Mostly Cloudy,0,2011-12-16 20:51:00
4:51 PM,34.0,25.0,70,30.24,10.0,Calm,Calm,-,N/A,,Overcast,0,2011-12-16 21:51:00
5:51 PM,34.0,26.1,73,30.25,10.0,Calm,Calm,-,N/A,,Overcast,0,2011-12-16 22:51:00
6:51 PM,34.0,27.0,75,30.25,10.0,NW,4.6,-,N/A,,Overcast,310,2011-12-16 23:51:00
7:51 PM,34.0,27.0,75,30.24,10.0,Calm,Calm,-,N/A,,Overcast,0,2011-12-17 00:51:00
8:48 PM,33.8,26.6,75,30.18,10.0,Calm,Calm,-,N/A,,Overcast,0,2011-12-17 01:48:00
8:51 PM,33.1,27.0,78,30.24,10.0,Calm,Calm,-,N/A,,Overcast,0,2011-12-17 01:51:00
9:51 PM,32.0,25.0,75,30.28,10.0,NW,5.8,-,N/A,,Overcast,320,2011-12-17 02:51:00
10:51 PM,32.0,26.1,79,30.28,10.0,NW,8.1,-,N/A,,Overcast,310,2011-12-17 03:51:00
11:51 PM,32.0,25.0,75,30.27,10.0,WNW,8.1,-,N/A,,Overcast,290,2011-12-17 04:51:00